Starlink 30183

operational
NORAD ID: 57436 Int'l Des: 2023-105 Owner: SPXS Country: US Constellation: starlink
LEOCIRCULAR

Starlink 30183について

説明を読み込み中...

リアルタイム位置

3D地球を読み込み中...

次回通過

高度履歴

Altitude vs Time

uPlot chart will show altitude changes over time

軌道要素

1 57436U 23105G 25352.00002315 .00509635 00000-0 43418-2 0 9994
2 57436 42.9797 286.8153 0033709 171.4243 330.5914 15.66541434 5674
Epoch: Dec 18, 2025 • Age: 8 hours

現在のステータス

高度 392.0 km
速度 7.67 km/s
衛星直下点 -35.09°S, 23.97°E
打ち上げ日 Jul 24, 2023
運用期間 2.4 years
タイプ internet

技術仕様

分類 Payload
質量 730.00 kg
乾燥質量 700.00 kg
総質量 730.00 kg
長さ 0.30 m
直径 4.10 m
スパン 29.00 m
形状 Box + pan
製造者 SPXS
バスタイプ Starlink V2M
フェーズステータス In Orbit
所有者/国 SPXS/US

大規模コンステレーション

Loading constellations...